Location: Unspecified
(49.2170°N, 0.0000°E)
Time: 04:20:26
(UTC+00:00)

Transit 2A - Pass Details

Date: 21 June 2019
Orbit: 594 x 964 km, 66.7° (Epoch: 21 July)

Event Time Altitude Azimuth Distance (km) Brightness Sun altitude
Rises 09:42:10 0° 320° (NW) 3,468 9.0 52.4°
Reaches altitude 10° 09:44:52 10° 314° (NW) 2,470 8.4 52.8°
Maximum altitude 09:50:10 43° 245° (WSW) 1,097 7.1 53.6°
Drops below altitude 10° 09:54:57 10° 175° (S) 2,217 8.9 54.2°
Sets 09:57:16 0° 169° (SSE) 3,076 9.5 54.5°
